Location: Casco Millpond
(44.5581°N, 87.6111°W)
Time: 09:33:12
(UTC+00:00)

CZ-4C R/B - Pass Details

Date: 16 January 2026
Orbit: 483 x 1496 km, 63.4° (Epoch: 10 February)

Event Time Altitude Azimuth Distance (km) Brightness Sun altitude
Exits shadow 12:01:52 - 333° (NNW) 2,918 4.6 -14.2°
Reaches altitude 10° 12:02:48 10° 339° (NNW) 2,696 4.5 -14.0°
Maximum altitude 12:07:46 22° 29° (NNE) 2,196 4.5 -13.2°
Drops below altitude 10° 12:13:36 10° 77° (ENE) 3,252 6.2 -12.2°
Sets 12:17:31 0° 91° (E) 4,376 7.5 -11.5°
